Terminal Aerodrome Forecast
Issued by NWS

Home | Current Version | Previous Version | Text Only | Print | Product List | Glossary On
Versions: 1 2 3 4 5 6 7 8 9 10 11 12 13
244
FTUS45 KRIW 271732
TAFBPI
TAF
KBPI 271732Z 2718/2818 VRB12G18KT P6SM VCTS SCT050CB BKN070
     FM280300 35008KT P6SM SCT080 BKN110
     FM280700 VRB05KT P6SM SCT060 BKN080=

USA.gov is the U.S. government's official web portal to all federal, state and local government web resources and services.